This is the latest recevied weather packets stored in our database for station/object DG4MJS-10. If no packets are shown the sender has not sent any weather packets the latest 10 day(s).
| Time | Temp. | Humidity | Pressure | Rain* | Wind** | Luminosity | Snow |
|---|---|---|---|---|---|---|---|
| 1778049914 | 13.89° C | 67% | 1007 hPa | - | - | - | - |
| 1778049014 | 13.89° C | 69% | 1007.1 hPa | - | - | - | - |
| 1778048114 | 13.33° C | 68% | 1007 hPa | - | - | - | - |
| 1778047214 | 13.33° C | 68% | 1006.9 hPa | - | - | - | - |
| 1778046314 | 13.33° C | 69% | 1006.9 hPa | - | - | - | - |
| 1778045414 | 12.78° C | 69% | 1006.9 hPa | - | - | - | - |
| 1778044513 | 12.78° C | 68% | 1007.3 hPa | - | - | - | - |
| 1778043613 | 12.78° C | 67% | 1007.4 hPa | - | - | - | - |
| 1778042713 | 12.22° C | 66% | 1007.3 hPa | - | - | - | - |
| 1778041813 | 12.78° C | 68% | 1007.3 hPa | - | - | - | - |
| 1778040915 | 12.78° C | 68% | 1007.5 hPa | - | - | - | - |
| 1778040015 | 12.78° C | 67% | 1007.6 hPa | - | - | - | - |
| 1778039115 | 12.78° C | 67% | 1007.7 hPa | - | - | - | - |
| 1778038215 | 12.78° C | 67% | 1007.8 hPa | - | - | - | - |
| 1778037315 | 12.78° C | 66% | 1008 hPa | - | - | - | - |
| 1778036415 | 12.78° C | 66% | 1008 hPa | - | - | - | - |
| 1778035515 | 13.33° C | 67% | 1007.7 hPa | - | - | - | - |
| 1778034614 | 13.33° C | 67% | 1007.9 hPa | - | - | - | - |
| 1778033714 | 13.33° C | 67% | 1008.2 hPa | - | - | - | - |
| 1778032814 | 13.89° C | 67% | 1008.1 hPa | - | - | - | - |
| 1778031914 | 13.33° C | 67% | 1008 hPa | - | - | - | - |
| 1778031014 | 13.89° C | 67% | 1008.2 hPa | - | - | - | - |
| 1778030113 | 13.89° C | 67% | 1008.2 hPa | - | - | - | - |
| 1778029213 | 13.89° C | 67% | 1008.3 hPa | - | - | - | - |
| 1778028313 | 13.89° C | 67% | 1008.2 hPa | - | - | - | - |
* Rain since midnight (hover to see other rain measurements)
** Current wind speed in m/s (hover to see current wind gust speed)